WD6AWP Weather Reports


time (UTC)temp
C
wind
direction
speed
KPH
gust
KPH
rain 1hr
cm
rain 24hr
cm
rain mn
cm
humidity
%
barometer
mb
20260506164553 20 209 4.8 12.9 0.00 0.00 0.00 71 1018.3
20260506163043 20 217 3.2 12.9 0.00 0.00 0.00 71 1018.2
20260506161540 20 225 3.2 14.5 0.00 0.00 0.00 71 1018.2
20260506160046 20 146 0.0 0.0 0.00 0.00 0.00 70 1018.3
20260506154543 20 137 0.0 0.0 0.00 0.00 0.00 71 1018.4
20260506153035 19 83 0.0 0.0 0.00 0.00 0.00 72 1018.4
20260506151531 18 78 0.0 6.4 0.00 0.00 0.00 73 1018.4
20260506150026 18 83 0.0 0.0 0.00 0.00 0.00 75 1018.4
20260506144527 17 84 0.0 0.0 0.00 0.00 0.00 77 1018.4
20260506143022 15 82 0.0 0.0 0.00 0.00 0.00 82 1018.3
20260506141515 13 84 0.0 0.0 0.00 0.00 0.00 90 1018.2
20260506140015 12 93 0.0 0.0 0.00 0.00 0.00 91 1018.1
20260506134513 11 117 0.0 0.0 0.00 0.00 0.00 92 1018.1
20260506133014 11 136 0.0 0.0 0.00 0.00 0.00 91 1017.9
20260506131516 11 136 0.0 0.0 0.00 0.00 0.00 91 1017.8
20260506130014 11 136 0.0 0.0 0.00 0.00 0.00 91 1017.6
20260506124506 12 136 0.0 0.0 0.00 0.00 0.00 91 1017.5
20260506123006 12 136 0.0 0.0 0.00 0.00 0.00 91 1017.4
20260506121504 12 136 0.0 0.0 0.00 0.00 0.00 90 1017.2
20260506120003 12 136 0.0 0.0 0.00 0.00 0.00 90 1017.2
20260506114503 12 136 0.0 0.0 0.00 0.00 0.00 90 1017.2
20260506113002 12 136 0.0 0.0 0.00 0.00 0.00 91 1017.1
20260506111559 12 137 0.0 0.0 0.00 0.00 0.00 91 1017.1
20260506110101 13 137 0.0 0.0 0.00 0.00 0.00 90 1017.1
20260506104557 13 137 0.0 0.0 0.00 0.00 0.00 91 1017.2
20260506103056 13 137 0.0 0.0 0.00 0.00 0.00 90 1017.2
20260506101554 13 137 0.0 0.0 0.00 0.00 0.00 90 1017.1
20260506100054 13 137 0.0 0.0 0.00 0.00 0.00 89 1017.0
20260506094550 13 233 0.0 0.0 0.00 0.08 0.00 89 1017.1
20260506093052 13 233 0.0 0.0 0.00 0.08 0.00 88 1017.2
20260506091547 14 223 0.0 0.0 0.00 0.08 0.00 88 1017.2
20260506090046 14 223 0.0 0.0 0.00 0.08 0.00 88 1017.3
20260506084545 14 219 0.0 0.0 0.00 0.08 0.00 88 1017.4
20260506083045 15 213 0.0 0.0 0.00 0.08 0.00 89 1017.5
20260506081548 15 213 0.0 0.0 0.00 0.08 0.00 89 1017.5
20260506073040 15 269 0.0 4.8 0.00 0.08 0.00 88 1017.5
20260506071548 15 269 0.0 4.8 0.00 0.08 0.00 88 1017.5
20260506061535 15 259 0.0 9.7 0.00 0.08 0.08 87 1017.1
20260506044530 16 261 4.8 14.5 0.00 0.08 0.08 84 1016.3
20260506043023 16 244 8.0 14.5 0.00 0.08 0.08 84 1016.2
20260506041524 16 284 3.2 16.1 0.00 0.08 0.08 84 1016.2
20260506040020 16 240 9.7 17.7 0.00 0.08 0.08 83 1015.9
20260506034519 16 286 11.3 19.3 0.00 0.08 0.08 82 1015.6
20260506033018 16 281 8.0 17.7 0.00 0.08 0.08 82 1015.5
20260506031518 16 278 6.4 19.3 0.00 0.08 0.08 81 1015.3
20260506030020 16 289 14.5 24.1 0.00 0.08 0.08 81 1015.1
20260506024521 16 275 12.9 25.7 0.00 0.08 0.08 80 1014.8
20260506023016 16 265 14.5 24.1 0.00 0.08 0.08 80 1014.6
20260506021515 17 252 11.3 25.7 0.00 0.08 0.08 79 1014.4
20260506020014 17 277 11.3 24.1 0.00 0.08 0.08 78 1014.5
20260506014514 17 290 14.5 24.1 0.00 0.08 0.08 77 1014.3
20260506013013 17 315 14.5 29.0 0.00 0.08 0.08 74 1014.1
20260506011512 18 286 16.1 27.4 0.00 0.08 0.08 75 1014.2
20260506010012 17 259 11.3 29.0 0.00 0.08 0.08 75 1014.2
20260506004512 18 269 16.1 30.6 0.00 0.08 0.08 73 1014.1
20260506003011 18 275 22.5 33.8 0.00 0.08 0.08 72 1013.9
20260506001510 18 271 16.1 32.2 0.00 0.08 0.08 74 1014.1
20260506000010 18 258 17.7 30.6 0.00 0.08 0.08 71 1014.1
20260505234518 19 271 17.7 30.6 0.00 0.08 0.08 71 1014.1
20260505233015 19 268 20.9 30.6 0.00 0.08 0.08 69 1014.2
20260505231511 18 267 19.3 37.0 0.00 0.08 0.08 69 1014.2
20260505230009 18 266 16.1 32.2 0.00 0.08 0.08 71 1014.3
20260505224507 20 252 19.3 29.0 0.00 0.08 0.08 67 1014.4
20260505223010 20 236 17.7 29.0 0.00 0.08 0.08 67 1014.4
20260505221505 20 214 17.7 33.8 0.00 0.08 0.08 66 1014.7
20260505220008 20 284 9.7 27.4 0.00 0.08 0.08 68 1014.7
20260505214540 20 246 16.1 25.7 0.00 0.08 0.08 67 1014.8
20260505213002 20 232 8.0 25.7 0.00 0.08 0.08 68 1014.9
20260505211502 20 290 14.5 29.0 0.00 0.08 0.08 65 1015.1
20260505210003 20 223 9.7 22.5 0.00 0.08 0.08 65 1015.1
20260505204601 20 240 9.7 19.3 0.00 0.08 0.08 67 1015.1
20260505203055 20 226 8.0 17.7 0.00 0.08 0.08 68 1015.0
20260505201602 20 242 8.0 22.5 0.00 0.08 0.08 67 1015.1
20260505200101 20 278 9.7 19.3 0.00 0.08 0.08 66 1015.2
20260505194555 19 261 11.3 25.7 0.00 0.08 0.08 68 1015.3
20260505193046 19 227 8.0 22.5 0.00 0.08 0.08 68 1015.4
20260505191545 19 208 8.0 22.5 0.00 0.08 0.08 70 1015.5
20260505190049 19 227 8.0 24.1 0.00 0.08 0.08 69 1015.4
20260505184544 18 223 14.5 24.1 0.00 0.08 0.08 70 1015.5
20260505183048 18 242 11.3 24.1 0.00 0.08 0.08 71 1015.5
20260505181541 19 235 11.3 24.1 0.00 0.08 0.08 67 1015.3
20260505180038 19 232 9.7 22.5 0.00 0.08 0.08 69 1015.3
20260505174535 19 231 6.4 20.9 0.00 0.08 0.08 69 1015.2
20260505173039 18 198 8.0 24.1 0.00 0.08 0.08 71 1015.1
20260505171535 18 254 14.5 24.1 0.00 0.08 0.08 70 1014.9
20260505170034 18 271 12.9 24.1 0.00 0.08 0.08 72 1014.9